This is the latest recevied weather packets stored in our database for station/object KE0WPC. If no packets are shown the sender has not sent any weather packets the latest 10 day(s).
| Time | Temp. | Humidity | Pressure | Rain* | Wind** | Luminosity | Snow |
|---|---|---|---|---|---|---|---|
| 1777913167 | 13.89° C | 43% | 1005 hPa | - | - | - | - |
| 1777912864 | 14.44° C | 44% | 1005.4 hPa | - | - | - | - |
| 1777912560 | 13.89° C | 44% | 1005 hPa | - | - | - | - |
| 1777912257 | 13.89° C | 44% | 1004.7 hPa | - | - | - | - |
| 1777911953 | 13.33° C | 43% | 1004.7 hPa | - | - | - | - |
| 1777911649 | 13.33° C | 46% | 1004.7 hPa | - | - | - | - |
| 1777911345 | 13.33° C | 47% | 1005 hPa | - | - | - | - |
| 1777911043 | 13.33° C | 46% | 1004.3 hPa | - | - | - | - |
| 1777910740 | 13.33° C | 47% | 1004.7 hPa | - | - | - | - |
| 1777910437 | 13.33° C | 48% | 1004.7 hPa | - | - | - | - |
| 1777910133 | 13.33° C | 49% | 1004.7 hPa | - | - | - | - |
| 1777909831 | 13.33° C | 51% | 1004.3 hPa | - | - | - | - |
| 1777909527 | 12.78° C | 52% | 1004.3 hPa | - | - | - | - |
| 1777909225 | 12.78° C | 51% | 1004.3 hPa | - | - | - | - |
| 1777908923 | 12.78° C | 51% | 1003.9 hPa | - | - | - | - |
| 1777908621 | 12.78° C | 50% | 1004.3 hPa | - | - | - | - |
| 1777908317 | 12.78° C | 50% | 1003.9 hPa | - | - | - | - |
| 1777908014 | 13.33° C | 50% | 1003.9 hPa | - | - | - | - |
| 1777907709 | 13.33° C | 50% | 1003.9 hPa | - | - | - | - |
| 1777907404 | 13.33° C | 52% | 1003.6 hPa | - | - | - | - |
| 1777907101 | 12.78° C | 53% | 1003.6 hPa | - | - | - | - |
| 1777906799 | 12.78° C | 53% | 1003.9 hPa | - | - | - | - |
| 1777906496 | 12.78° C | 52% | 1003.9 hPa | - | - | - | - |
| 1777906192 | 12.78° C | 54% | 1003.9 hPa | - | - | - | - |
| 1777905889 | 12.22° C | 54% | 1003.9 hPa | - | - | - | - |
* Rain since midnight (hover to see other rain measurements)
** Current wind speed in m/s (hover to see current wind gust speed)